Location: Newark
(48.4472°N, 1.4892°E)
Time: 05:32:48
(UTC+00:00)

Vanguard 2 Rocket - Pass Details

Date: 22 November 2019
Orbit: 554 x 3326 km, 32.9° (Epoch: 11 December)

Event Time Altitude Azimuth Distance (km) Brightness Sun altitude
Exits shadow 04:12:16 13° 188° (S) 2,596 9.1 -29.3°
Drops below altitude 10° 04:15:34 10° 162° (SSE) 3,214 9.9 -28.8°
Sets 04:21:14 0° 139° (SE) 4,850 11.2 -27.8°
